Time,TemperatureF,DewpointF,PressureIn,WindDirection,WindDirectionDegrees,WindSpeedMPH,WindSpeedGustMPH,Humidity,HourlyPrecipIn,Conditions,Clouds,dailyrainin,SolarRadiationWatts/m^2,SoftwareType,DateUTC
2013-06-04 00:01:00,51.3,28.4,29.97,SSE,157,2.0,3.0,41,0.00,,,0.00,0,LWC V2.00 B727,2013-06-04 06:01:00,
2013-06-04 00:06:00,51.1,28.8,29.97,SSE,160,2.0,3.0,42,0.00,,,0.00,0,LWC V2.00 B727,2013-06-04 06:06:00,
2013-06-04 00:11:00,51.1,28.8,29.97,SSE,159,2.0,3.0,42,0.00,,,0.00,0,LWC V2.00 B727,2013-06-04 06:11:00,
2013-06-04 00:16:00,51.3,28.4,29.97,SSE,155,3.0,5.0,41,0.00,,,0.00,0,LWC V2.00 B727,2013-06-04 06:16:00,
2013-06-04 00:21:00,51.2,28.9,29.97,SSE,161,1.0,4.0,42,0.00,,,0.00,0,LWC V2.00 B727,2013-06-04 06:21:00,
2013-06-04 00:26:00,51.0,28.7,29.97,South,188,2.0,5.0,42,0.00,,,0.00,0,LWC V2.00 B727,2013-06-04 06:26:00,
2013-06-04 00:31:00,50.8,28.5,29.96,South,177,2.0,4.0,42,0.00,,,0.00,0,LWC V2.00 B727,2013-06-04 06:31:00,
2013-06-04 00:36:00,50.7,28.5,29.97,South,184,4.0,5.0,42,0.00,,,0.00,0,LWC V2.00 B727,2013-06-04 06:36:00,
2013-06-04 00:41:00,50.6,28.4,29.97,South,184,4.0,5.0,42,0.00,,,0.00,0,LWC V2.00 B727,2013-06-04 06:41:00,
2013-06-04 00:46:00,50.5,28.3,29.97,SSE,160,1.0,2.0,42,0.00,,,0.00,0,LWC V2.00 B727,2013-06-04 06:46:00,
2013-06-04 00:51:00,50.5,28.3,29.97,South,180,3.0,5.0,42,0.00,,,0.00,0,LWC V2.00 B727,2013-06-04 06:51:00,
2013-06-04 00:56:00,50.5,28.3,29.97,South,173,2.0,3.0,42,0.00,,,0.00,0,LWC V2.00 B727,2013-06-04 06:56:00,
2013-06-04 01:01:00,50.4,28.2,29.96,South,176,4.0,4.0,42,0.00,,,0.00,0,LWC V2.00 B727,2013-06-04 07:01:00,
2013-06-04 01:06:00,50.4,28.2,29.97,South,169,1.0,5.0,42,0.00,,,0.00,0,LWC V2.00 B727,2013-06-04 07:06:00,
2013-06-04 01:11:00,50.2,28.0,29.96,South,178,4.0,4.0,42,0.00,,,0.00,0,LWC V2.00 B727,2013-06-04 07:11:00,
2013-06-04 01:16:00,50.1,27.9,29.96,South,184,3.0,5.0,42,0.00,,,0.00,0,LWC V2.00 B727,2013-06-04 07:16:00,
2013-06-04 01:21:00,50.2,28.0,29.97,South,169,0.0,5.0,42,0.00,,,0.00,0,LWC V2.00 B727,2013-06-04 07:21:00,
2013-06-04 01:26:00,50.2,28.0,29.97,South,180,1.0,4.0,42,0.00,,,0.00,0,LWC V2.00 B727,2013-06-04 07:26:00,
2013-06-04 01:31:00,50.2,28.0,29.97,SSE,164,3.0,3.0,42,0.00,,,0.00,0,LWC V2.00 B727,2013-06-04 07:31:00,
2013-06-04 01:36:00,50.2,28.0,29.97,SSE,167,3.0,4.0,42,0.00,,,0.00,0,LWC V2.00 B727,2013-06-04 07:36:00,
2013-06-04 01:41:00,50.1,28.5,29.96,South,178,1.0,4.0,43,0.00,,,0.00,0,LWC V2.00 B727,2013-06-04 07:41:00,
2013-06-04 01:46:00,50.0,27.8,29.96,South,176,2.0,4.0,42,0.00,,,0.00,0,LWC V2.00 B727,2013-06-04 07:46:00,
2013-06-04 01:51:00,50.0,27.8,29.97,South,183,4.0,6.0,42,0.00,,,0.00,0,LWC V2.00 B727,2013-06-04 07:51:00,
2013-06-04 01:56:00,49.9,27.7,29.97,South,180,3.0,4.0,42,0.00,,,0.00,0,LWC V2.00 B727,2013-06-04 07:56:00,
2013-06-04 02:01:00,49.8,28.2,29.97,South,171,1.0,3.0,43,0.00,,,0.00,0,LWC V2.00 B727,2013-06-04 08:01:00,
2013-06-04 02:06:00,49.7,28.1,29.97,South,180,2.0,4.0,43,0.00,,,0.00,0,LWC V2.00 B727,2013-06-04 08:06:00,
2013-06-04 02:11:00,49.6,28.0,29.96,South,175,1.0,2.0,43,0.00,,,0.00,0,LWC V2.00 B727,2013-06-04 08:11:00,
2013-06-04 02:16:00,49.5,27.9,29.97,SSE,163,2.0,4.0,43,0.00,,,0.00,0,LWC V2.00 B727,2013-06-04 08:16:00,
2013-06-04 02:21:00,49.3,27.8,29.97,SSE,157,1.0,3.0,43,0.00,,,0.00,0,LWC V2.00 B727,2013-06-04 08:21:00,
2013-06-04 02:26:00,49.2,27.7,29.97,SSE,160,1.0,3.0,43,0.00,,,0.00,0,LWC V2.00 B727,2013-06-04 08:26:00,
2013-06-04 02:31:00,49.1,27.6,29.96,South,175,1.0,4.0,43,0.00,,,0.00,0,LWC V2.00 B727,2013-06-04 08:31:00,
2013-06-04 02:36:00,49.0,27.5,29.97,South,177,1.0,3.0,43,0.00,,,0.00,0,LWC V2.00 B727,2013-06-04 08:36:00,
2013-06-04 02:41:00,49.0,27.5,29.97,South,175,2.0,4.0,43,0.00,,,0.00,0,LWC V2.00 B727,2013-06-04 08:41:00,
2013-06-04 02:46:00,49.1,27.6,29.97,South,173,1.0,5.0,43,0.00,,,0.00,0,LWC V2.00 B727,2013-06-04 08:46:00,
2013-06-04 02:51:00,49.2,27.7,29.97,South,175,2.0,3.0,43,0.00,,,0.00,0,LWC V2.00 B727,2013-06-04 08:51:00,
2013-06-04 02:56:00,49.1,27.6,29.97,South,178,2.0,3.0,43,0.00,,,0.00,0,LWC V2.00 B727,2013-06-04 08:56:00,
2013-06-04 03:01:00,49.0,27.5,29.97,South,180,2.0,3.0,43,0.00,,,0.00,0,LWC V2.00 B727,2013-06-04 09:01:00,
2013-06-04 03:06:00,49.0,27.5,29.97,South,173,1.0,4.0,43,0.00,,,0.00,0,LWC V2.00 B727,2013-06-04 09:06:00,
2013-06-04 03:11:00,49.0,27.5,29.97,SSE,153,0.0,3.0,43,0.00,,,0.00,0,LWC V2.00 B727,2013-06-04 09:11:00,
2013-06-04 03:16:00,49.0,27.5,29.97,South,175,5.0,5.0,43,0.00,,,0.00,0,LWC V2.00 B727,2013-06-04 09:16:00,
2013-06-04 03:21:00,49.1,27.6,29.97,South,181,2.0,4.0,43,0.00,,,0.00,0,LWC V2.00 B727,2013-06-04 09:21:00,
2013-06-04 03:26:00,49.0,27.5,29.97,South,182,2.0,4.0,43,0.00,,,0.00,0,LWC V2.00 B727,2013-06-04 09:26:00,
2013-06-04 03:31:00,48.8,27.3,29.97,South,184,5.0,5.0,43,0.00,,,0.00,0,LWC V2.00 B727,2013-06-04 09:31:00,
2013-06-04 03:36:00,48.8,27.3,29.97,South,176,2.0,4.0,43,0.00,,,0.00,0,LWC V2.00 B727,2013-06-04 09:36:00,
2013-06-04 03:41:00,48.8,27.3,29.97,South,180,2.0,3.0,43,0.00,,,0.00,0,LWC V2.00 B727,2013-06-04 09:41:00,
2013-06-04 03:46:00,48.7,26.6,29.97,South,178,1.0,4.0,42,0.00,,,0.00,0,LWC V2.00 B727,2013-06-04 09:46:00,
2013-06-04 03:51:00,48.6,27.1,29.97,South,184,2.0,2.0,43,0.00,,,0.00,0,LWC V2.00 B727,2013-06-04 09:51:00,
2013-06-04 03:56:00,48.6,27.1,29.98,South,176,1.0,4.0,43,0.00,,,0.00,0,LWC V2.00 B727,2013-06-04 09:56:00,
2013-06-04 04:01:00,48.5,27.0,29.98,South,178,3.0,3.0,43,0.00,,,0.00,0,LWC V2.00 B727,2013-06-04 10:01:00,
2013-06-04 04:06:00,48.3,26.9,29.98,South,176,2.0,3.0,43,0.00,,,0.00,0,LWC V2.00 B727,2013-06-04 10:06:00,
2013-06-04 04:11:00,48.3,26.9,29.98,South,174,3.0,3.0,43,0.00,,,0.00,0,LWC V2.00 B727,2013-06-04 10:11:00,
2013-06-04 04:16:00,48.3,26.9,29.98,South,173,3.0,4.0,43,0.00,,,0.00,0,LWC V2.00 B727,2013-06-04 10:16:00,
2013-06-04 04:21:00,48.3,26.9,29.98,South,171,0.0,4.0,43,0.00,,,0.00,0,LWC V2.00 B727,2013-06-04 10:21:00,
2013-06-04 04:26:00,48.2,26.8,29.98,South,171,0.0,4.0,43,0.00,,,0.00,0,LWC V2.00 B727,2013-06-04 10:26:00,
2013-06-04 04:31:00,48.2,26.8,29.98,South,172,0.0,1.0,43,0.00,,,0.00,0,LWC V2.00 B727,2013-06-04 10:31:00,
2013-06-04 04:36:00,48.1,26.7,29.98,South,173,0.0,0.0,43,0.00,,,0.00,0,LWC V2.00 B727,2013-06-04 10:36:00,
2013-06-04 04:41:00,48.0,27.1,29.98,South,172,0.0,1.0,44,0.00,,,0.00,0,LWC V2.00 B727,2013-06-04 10:41:00,
2013-06-04 04:46:00,47.8,27.0,29.98,South,172,0.0,2.0,44,0.00,,,0.00,0,LWC V2.00 B727,2013-06-04 10:46:00,
2013-06-04 04:51:00,47.6,26.8,29.98,South,176,2.0,3.0,44,0.00,,,0.00,0,LWC V2.00 B727,2013-06-04 10:51:00,
2013-06-04 04:56:00,47.6,26.8,29.98,South,190,4.0,4.0,44,0.00,,,0.00,0,LWC V2.00 B727,2013-06-04 10:56:00,
2013-06-04 05:01:00,47.8,26.4,29.99,South,179,4.0,4.0,43,0.00,,,0.00,0,LWC V2.00 B727,2013-06-04 11:01:00,
2013-06-04 05:06:00,48.1,26.7,29.99,South,173,4.0,6.0,43,0.00,,,0.00,0,LWC V2.00 B727,2013-06-04 11:06:00,
2013-06-04 05:11:00,48.5,27.0,29.99,SSE,158,4.0,4.0,43,0.00,,,0.00,0,LWC V2.00 B727,2013-06-04 11:11:00,
2013-06-04 05:16:00,48.7,26.6,29.99,SSE,159,4.0,6.0,42,0.00,,,0.00,0,LWC V2.00 B727,2013-06-04 11:16:00,
2013-06-04 05:21:00,48.8,26.7,29.99,SSE,168,2.0,4.0,42,0.00,,,0.00,0,LWC V2.00 B727,2013-06-04 11:21:00,
2013-06-04 05:26:00,48.9,27.4,29.99,SE,142,2.0,5.0,43,0.00,,,0.00,0,LWC V2.00 B727,2013-06-04 11:26:00,
2013-06-04 05:31:00,48.9,26.8,29.99,SSE,167,2.0,3.0,42,0.00,,,0.00,0,LWC V2.00 B727,2013-06-04 11:31:00,
2013-06-04 05:36:00,48.6,27.1,29.99,SSE,159,2.0,4.0,43,0.00,,,0.00,0,LWC V2.00 B727,2013-06-04 11:36:00,
2013-06-04 05:41:00,48.2,27.3,29.99,SSE,154,1.0,3.0,44,0.00,,,0.00,0,LWC V2.00 B727,2013-06-04 11:41:00,
2013-06-04 05:46:00,47.9,27.0,29.99,SSE,157,2.0,3.0,44,0.00,,,0.00,0,LWC V2.00 B727,2013-06-04 11:46:00,
2013-06-04 05:51:00,47.7,26.9,29.99,South,186,2.0,4.0,44,0.00,,,0.00,5,LWC V2.00 B727,2013-06-04 11:51:00,
2013-06-04 05:56:00,47.7,26.9,29.99,South,186,3.0,3.0,44,0.00,,,0.00,9,LWC V2.00 B727,2013-06-04 11:56:00,
2013-06-04 06:01:00,47.8,27.0,29.99,South,174,2.0,4.0,44,0.00,,,0.00,14,LWC V2.00 B727,2013-06-04 12:01:00,
2013-06-04 06:06:00,47.9,27.6,29.99,South,183,5.0,5.0,45,0.00,,,0.00,18,LWC V2.00 B727,2013-06-04 12:06:00,
2013-06-04 06:11:00,48.1,27.8,29.99,South,183,2.0,4.0,45,0.00,,,0.00,21,LWC V2.00 B727,2013-06-04 12:11:00,
2013-06-04 06:16:00,48.3,27.4,29.99,South,176,1.0,5.0,44,0.00,,,0.00,25,LWC V2.00 B727,2013-06-04 12:16:00,
2013-06-04 06:21:00,48.5,28.1,29.99,South,188,4.0,4.0,45,0.00,,,0.00,28,LWC V2.00 B727,2013-06-04 12:21:00,
2013-06-04 06:26:00,48.7,28.3,29.99,SSE,165,2.0,5.0,45,0.00,,,0.00,32,LWC V2.00 B727,2013-06-04 12:26:00,
2013-06-04 06:31:00,49.0,28.6,30.00,South,180,2.0,5.0,45,0.00,,,0.00,37,LWC V2.00 B727,2013-06-04 12:31:00,
2013-06-04 06:36:00,49.3,28.9,30.00,South,180,3.0,5.0,45,0.00,,,0.00,46,LWC V2.00 B727,2013-06-04 12:36:00,
2013-06-04 06:41:00,49.7,29.2,30.00,South,179,2.0,3.0,45,0.00,,,0.00,54,LWC V2.00 B727,2013-06-04 12:41:00,
2013-06-04 06:46:00,50.0,30.6,30.00,South,180,2.0,2.0,47,0.00,,,0.00,69,LWC V2.00 B727,2013-06-04 12:46:00,
2013-06-04 06:51:00,50.5,30.0,30.00,South,176,2.0,5.0,45,0.00,,,0.00,83,LWC V2.00 B727,2013-06-04 12:51:00,
2013-06-04 06:56:00,51.0,30.4,30.00,South,178,2.0,4.0,45,0.00,,,0.00,98,LWC V2.00 B727,2013-06-04 12:56:00,
2013-06-04 07:01:00,51.5,31.4,30.00,South,179,2.0,4.0,46,0.00,,,0.00,114,LWC V2.00 B727,2013-06-04 13:01:00,
2013-06-04 07:06:00,52.1,32.0,30.00,South,179,2.0,4.0,46,0.00,,,0.00,130,LWC V2.00 B727,2013-06-04 13:06:00,
2013-06-04 07:11:00,52.8,32.6,30.00,South,182,2.0,3.0,46,0.00,,,0.00,144,LWC V2.00 B727,2013-06-04 13:11:00,
2013-06-04 07:16:00,53.4,33.1,30.00,South,177,2.0,3.0,46,0.00,,,0.00,165,LWC V2.00 B727,2013-06-04 13:16:00,
2013-06-04 07:21:00,54.3,34.0,30.00,South,182,2.0,3.0,46,0.00,,,0.00,181,LWC V2.00 B727,2013-06-04 13:21:00,
2013-06-04 07:26:00,55.1,34.7,30.00,South,188,3.0,3.0,46,0.00,,,0.00,204,LWC V2.00 B727,2013-06-04 13:26:00,
2013-06-04 07:31:00,56.0,35.0,30.00,SSE,165,4.0,4.0,45,0.00,,,0.00,216,LWC V2.00 B727,2013-06-04 13:31:00,
2013-06-04 07:36:00,56.9,35.2,30.01,SSE,167,0.0,2.0,44,0.00,,,0.00,236,LWC V2.00 B727,2013-06-04 13:36:00,
2013-06-04 07:41:00,57.9,35.5,30.01,SSE,167,0.0,1.0,43,0.00,,,0.00,255,LWC V2.00 B727,2013-06-04 13:41:00,
2013-06-04 07:46:00,58.7,36.8,30.01,SSE,167,0.0,0.0,44,0.00,,,0.00,271,LWC V2.00 B727,2013-06-04 13:46:00,
2013-06-04 07:51:00,59.7,36.0,30.01,SSE,167,0.0,1.0,41,0.00,,,0.00,287,LWC V2.00 B727,2013-06-04 13:51:00,
2013-06-04 07:56:00,60.9,35.1,30.01,SSE,167,0.0,0.0,38,0.00,,,0.00,308,LWC V2.00 B727,2013-06-04 13:56:00,
2013-06-04 08:01:00,62.2,32.7,30.01,South,175,0.0,3.0,33,0.00,,,0.00,327,LWC V2.00 B727,2013-06-04 14:01:00,
2013-06-04 08:06:00,63.0,34.2,30.01,South,175,0.0,2.0,34,0.00,,,0.00,343,LWC V2.00 B727,2013-06-04 14:06:00,
2013-06-04 08:11:00,63.7,33.3,30.01,South,175,0.0,0.0,32,0.00,,,0.00,360,LWC V2.00 B727,2013-06-04 14:11:00,
2013-06-04 08:16:00,64.6,35.6,30.01,South,175,0.0,1.0,34,0.00,,,0.00,380,LWC V2.00 B727,2013-06-04 14:16:00,
2013-06-04 08:21:00,65.5,35.6,30.01,SSE,167,1.0,2.0,33,0.00,,,0.00,397,LWC V2.00 B727,2013-06-04 14:21:00,
2013-06-04 08:26:00,66.4,39.3,30.01,SE,137,2.0,3.0,37,0.00,,,0.00,415,LWC V2.00 B727,2013-06-04 14:26:00,
2013-06-04 08:31:00,67.4,38.1,30.00,ENE,57,0.0,4.0,34,0.00,,,0.00,434,LWC V2.00 B727,2013-06-04 14:31:00,
2013-06-04 08:36:00,68.1,38.7,30.00,ENE,57,0.0,2.0,34,0.00,,,0.00,448,LWC V2.00 B727,2013-06-04 14:36:00,
2013-06-04 08:41:00,68.7,39.9,30.01,ENE,57,0.0,3.0,35,0.00,,,0.00,459,LWC V2.00 B727,2013-06-04 14:41:00,
2013-06-04 08:46:00,69.3,38.2,30.01,ENE,57,0.0,1.0,32,0.00,,,0.00,476,LWC V2.00 B727,2013-06-04 14:46:00,
2013-06-04 08:51:00,69.9,39.5,30.01,ENE,57,0.0,2.0,33,0.00,,,0.00,501,LWC V2.00 B727,2013-06-04 14:51:00,
2013-06-04 08:56:00,70.4,39.1,30.00,ENE,57,0.0,3.0,32,0.00,,,0.00,520,LWC V2.00 B727,2013-06-04 14:56:00,
2013-06-04 09:01:00,70.9,39.6,30.00,ENE,57,1.0,1.0,32,0.00,,,0.00,536,LWC V2.00 B727,2013-06-04 15:01:00,
2013-06-04 09:06:00,71.4,38.3,30.00,ENE,57,0.0,1.0,30,0.00,,,0.00,555,LWC V2.00 B727,2013-06-04 15:06:00,
2013-06-04 09:11:00,71.9,37.9,30.00,ENE,57,0.0,0.0,29,0.00,,,0.00,570,LWC V2.00 B727,2013-06-04 15:11:00,
2013-06-04 09:16:00,72.4,37.4,30.00,NE,53,0.0,3.0,28,0.00,,,0.00,587,LWC V2.00 B727,2013-06-04 15:16:00,
2013-06-04 09:21:00,72.8,37.8,30.00,NE,56,0.0,2.0,28,0.00,,,0.00,605,LWC V2.00 B727,2013-06-04 15:21:00,
2013-06-04 09:26:00,73.3,38.2,30.00,ENE,57,0.0,0.0,28,0.00,,,0.00,617,LWC V2.00 B727,2013-06-04 15:26:00,
2013-06-04 09:31:00,73.7,34.7,30.00,ENE,57,0.0,3.0,24,0.00,,,0.00,638,LWC V2.00 B727,2013-06-04 15:31:00,
2013-06-04 09:36:00,74.2,39.0,30.00,SW,217,6.0,6.0,28,0.00,,,0.00,663,LWC V2.00 B727,2013-06-04 15:36:00,
2013-06-04 09:41:00,74.5,37.4,30.00,SW,216,1.0,8.0,26,0.00,,,0.00,679,LWC V2.00 B727,2013-06-04 15:41:00,
2013-06-04 09:46:00,74.3,35.2,30.00,North,5,2.0,6.0,24,0.00,,,0.00,694,LWC V2.00 B727,2013-06-04 15:46:00,
2013-06-04 09:51:00,74.4,37.3,30.00,North,0,2.0,6.0,26,0.00,,,0.00,708,LWC V2.00 B727,2013-06-04 15:51:00,
2013-06-04 09:56:00,74.4,35.2,30.00,SW,215,2.0,5.0,24,0.00,,,0.00,722,LWC V2.00 B727,2013-06-04 15:56:00,
2013-06-04 10:01:00,74.6,35.4,30.00,NW,306,0.0,1.0,24,0.00,,,0.00,737,LWC V2.00 B727,2013-06-04 16:01:00,
2013-06-04 10:06:00,74.9,35.7,30.00,North,0,3.0,5.0,24,0.00,,,0.00,752,LWC V2.00 B727,2013-06-04 16:06:00,
2013-06-04 10:11:00,75.2,34.8,30.00,SW,221,4.0,8.0,23,0.00,,,0.00,766,LWC V2.00 B727,2013-06-04 16:11:00,
2013-06-04 10:16:00,75.5,37.2,30.00,SE,146,0.0,1.0,25,0.00,,,0.00,780,LWC V2.00 B727,2013-06-04 16:16:00,
2013-06-04 10:21:00,76.0,36.6,30.00,West,267,0.0,7.0,24,0.00,,,0.00,796,LWC V2.00 B727,2013-06-04 16:21:00,
2013-06-04 10:26:00,76.3,35.8,29.99,SW,230,0.0,5.0,23,0.00,,,0.00,809,LWC V2.00 B727,2013-06-04 16:26:00,
2013-06-04 10:31:00,76.6,34.9,30.00,WSW,237,4.0,9.0,22,0.00,,,0.00,817,LWC V2.00 B727,2013-06-04 16:31:00,
2013-06-04 10:36:00,76.7,36.1,30.00,WNW,301,2.0,4.0,23,0.00,,,0.00,828,LWC V2.00 B727,2013-06-04 16:36:00,
2013-06-04 10:41:00,76.9,36.3,30.00,SSW,210,2.0,6.0,23,0.00,,,0.00,844,LWC V2.00 B727,2013-06-04 16:41:00,
2013-06-04 10:46:00,76.9,35.1,29.99,SW,232,2.0,7.0,22,0.00,,,0.00,858,LWC V2.00 B727,2013-06-04 16:46:00,
2013-06-04 10:51:00,77.3,37.7,29.99,NNE,21,2.0,5.0,24,0.00,,,0.00,868,LWC V2.00 B727,2013-06-04 16:51:00,
2013-06-04 10:56:00,77.5,35.6,29.99,SW,232,0.0,4.0,22,0.00,,,0.00,879,LWC V2.00 B727,2013-06-04 16:56:00,
2013-06-04 11:01:00,77.9,36.0,29.99,NE,42,2.0,9.0,22,0.00,,,0.00,895,LWC V2.00 B727,2013-06-04 17:01:00,
2013-06-04 11:06:00,77.8,35.9,29.99,NNW,340,6.0,7.0,22,0.00,,,0.00,904,LWC V2.00 B727,2013-06-04 17:06:00,
2013-06-04 11:11:00,77.8,34.7,29.99,WSW,249,5.0,7.0,21,0.00,,,0.00,919,LWC V2.00 B727,2013-06-04 17:11:00,
2013-06-04 11:16:00,77.9,37.1,29.99,NE,44,3.0,5.0,23,0.00,,,0.00,962,LWC V2.00 B727,2013-06-04 17:16:00,
2013-06-04 11:21:00,78.5,36.5,29.99,SW,227,6.0,6.0,22,0.00,,,0.00,1002,LWC V2.00 B727,2013-06-04 17:21:00,
2013-06-04 11:26:00,78.7,36.6,29.99,SSW,207,0.0,7.0,22,0.00,,,0.00,691,LWC V2.00 B727,2013-06-04 17:26:00,
2013-06-04 11:31:00,78.7,34.2,29.99,WSW,237,2.0,10.0,20,0.00,,,0.00,963,LWC V2.00 B727,2013-06-04 17:31:00,
2013-06-04 11:36:00,78.7,37.8,29.98,East,90,0.0,3.0,23,0.00,,,0.00,960,LWC V2.00 B727,2013-06-04 17:36:00,
2013-06-04 11:41:00,79.0,36.9,29.98,South,179,3.0,5.0,22,0.00,,,0.00,970,LWC V2.00 B727,2013-06-04 17:41:00,
2013-06-04 11:46:00,79.2,37.1,29.98,North,11,6.0,8.0,22,0.00,,,0.00,997,LWC V2.00 B727,2013-06-04 17:46:00,
2013-06-04 11:51:00,79.2,38.2,29.98,NNE,28,3.0,4.0,23,0.00,,,0.00,926,LWC V2.00 B727,2013-06-04 17:51:00,
2013-06-04 11:56:00,79.2,37.1,29.98,North,350,4.0,7.0,22,0.00,,,0.00,689,LWC V2.00 B727,2013-06-04 17:56:00,
2013-06-04 12:01:00,78.9,35.6,29.98,SSW,208,1.0,4.0,21,0.00,,,0.00,1023,LWC V2.00 B727,2013-06-04 18:01:00,
2013-06-04 12:06:00,79.1,39.2,29.97,NNE,26,2.0,7.0,24,0.00,,,0.00,1014,LWC V2.00 B727,2013-06-04 18:06:00,
2013-06-04 12:11:00,79.7,37.5,29.97,SW,230,3.0,5.0,22,0.00,,,0.00,1011,LWC V2.00 B727,2013-06-04 18:11:00,
2013-06-04 12:16:00,80.0,36.5,29.97,NE,38,6.0,8.0,21,0.00,,,0.00,1027,LWC V2.00 B727,2013-06-04 18:16:00,
2013-06-04 12:21:00,79.8,35.1,29.97,North,5,7.0,8.0,20,0.00,,,0.00,912,LWC V2.00 B727,2013-06-04 18:21:00,
2013-06-04 12:26:00,79.5,36.1,29.97,North,350,0.0,6.0,21,0.00,,,0.00,1046,LWC V2.00 B727,2013-06-04 18:26:00,
2013-06-04 12:31:00,79.9,39.9,29.96,North,5,7.0,8.0,24,0.00,,,0.00,1048,LWC V2.00 B727,2013-06-04 18:31:00,
2013-06-04 12:36:00,80.5,37.0,29.96,North,9,3.0,7.0,21,0.00,,,0.00,1067,LWC V2.00 B727,2013-06-04 18:36:00,
2013-06-04 12:41:00,80.9,36.0,29.96,NNE,19,5.0,11.0,20,0.00,,,0.00,1071,LWC V2.00 B727,2013-06-04 18:41:00,
2013-06-04 12:46:00,81.1,36.2,29.95,SSW,195,0.0,3.0,20,0.00,,,0.00,1060,LWC V2.00 B727,2013-06-04 18:46:00,
2013-06-04 12:51:00,81.6,36.6,29.95,North,10,4.0,8.0,20,0.00,,,0.00,1023,LWC V2.00 B727,2013-06-04 18:51:00,
2013-06-04 12:56:00,81.2,36.3,29.95,NNW,329,8.0,8.0,20,0.00,,,0.00,1060,LWC V2.00 B727,2013-06-04 18:56:00,
2013-06-04 13:01:00,81.0,36.1,29.95,SW,234,4.0,6.0,20,0.00,,,0.00,1067,LWC V2.00 B727,2013-06-04 19:01:00,
2013-06-04 13:06:00,81.3,38.8,29.95,NE,37,5.0,7.0,22,0.00,,,0.00,1074,LWC V2.00 B727,2013-06-04 19:06:00,
2013-06-04 13:11:00,81.8,36.8,29.94,North,351,6.0,9.0,20,0.00,,,0.00,1060,LWC V2.00 B727,2013-06-04 19:11:00,
2013-06-04 13:16:00,81.8,39.2,29.94,NNW,346,3.0,9.0,22,0.00,,,0.00,1074,LWC V2.00 B727,2013-06-04 19:16:00,
2013-06-04 13:21:00,82.4,36.0,29.94,North,0,3.0,7.0,19,0.00,,,0.00,1065,LWC V2.00 B727,2013-06-04 19:21:00,
2013-06-04 13:26:00,82.6,34.8,29.94,SW,236,2.0,9.0,18,0.00,,,0.00,1079,LWC V2.00 B727,2013-06-04 19:26:00,
2013-06-04 13:31:00,82.6,36.1,29.94,NNE,13,4.0,6.0,19,0.00,,,0.00,1102,LWC V2.00 B727,2013-06-04 19:31:00,
2013-06-04 13:36:00,82.9,37.7,29.94,NNE,26,5.0,8.0,20,0.00,,,0.00,1129,LWC V2.00 B727,2013-06-04 19:36:00,
2013-06-04 13:41:00,82.5,40.9,29.93,NNW,336,7.0,8.0,23,0.00,,,0.00,1083,LWC V2.00 B727,2013-06-04 19:41:00,
2013-06-04 13:46:00,82.4,38.5,29.93,NNW,346,2.0,7.0,21,0.00,,,0.00,1141,LWC V2.00 B727,2013-06-04 19:46:00,
2013-06-04 13:51:00,82.4,39.7,29.93,SSW,205,4.0,6.0,22,0.00,,,0.00,1042,LWC V2.00 B727,2013-06-04 19:51:00,
2013-06-04 13:56:00,82.7,34.9,29.92,SE,124,2.0,5.0,18,0.00,,,0.00,802,LWC V2.00 B727,2013-06-04 19:56:00,
2013-06-04 14:01:00,82.0,32.9,29.93,South,172,8.0,10.0,17,0.00,,,0.00,601,LWC V2.00 B727,2013-06-04 20:01:00,
2013-06-04 14:06:00,80.5,33.1,29.93,SW,236,9.0,10.0,18,0.00,,,0.00,638,LWC V2.00 B727,2013-06-04 20:06:00,
2013-06-04 14:11:00,79.8,33.9,29.93,SSW,194,6.0,10.0,19,0.00,,,0.00,675,LWC V2.00 B727,2013-06-04 20:11:00,
2013-06-04 14:16:00,79.7,33.8,29.93,SSW,192,0.0,6.0,19,0.00,,,0.00,851,LWC V2.00 B727,2013-06-04 20:16:00,
2013-06-04 14:21:00,80.8,34.7,29.93,West,277,1.0,6.0,19,0.00,,,0.00,1000,LWC V2.00 B727,2013-06-04 20:21:00,
2013-06-04 14:26:00,82.2,34.5,29.92,SSW,196,5.0,7.0,18,0.00,,,0.00,990,LWC V2.00 B727,2013-06-04 20:26:00,
2013-06-04 14:31:00,81.7,35.4,29.92,SW,232,4.0,7.0,19,0.00,,,0.00,888,LWC V2.00 B727,2013-06-04 20:31:00,
2013-06-04 14:35:00,82.0,35.7,29.92,South,184,5.0,9.0,19,0.00,,,0.00,970,LWC V2.00 B727,2013-06-04 20:35:00,
2013-06-04 14:40:00,82.1,35.7,29.92,NW,310,0.0,1.0,19,0.00,,,0.00,918,LWC V2.00 B727,2013-06-04 20:40:00,
2013-06-04 14:45:00,82.3,35.9,29.92,NNE,30,2.0,6.0,19,0.00,,,0.00,849,LWC V2.00 B727,2013-06-04 20:45:00,
2013-06-04 14:50:00,82.9,35.0,29.92,SW,232,6.0,8.0,18,0.00,,,0.00,958,LWC V2.00 B727,2013-06-04 20:50:00,
2013-06-04 14:55:00,82.6,33.4,29.92,WSW,242,8.0,8.0,17,0.00,,,0.00,236,LWC V2.00 B727,2013-06-04 20:55:00,
2013-06-04 15:00:00,80.8,34.7,29.91,South,188,0.0,3.0,19,0.00,,,0.00,921,LWC V2.00 B727,2013-06-04 21:00:00,
2013-06-04 15:05:00,81.6,35.3,29.91,SW,217,3.0,7.0,19,0.00,,,0.00,863,LWC V2.00 B727,2013-06-04 21:05:00,
2013-06-04 15:10:00,81.9,32.8,29.91,South,186,6.0,10.0,17,0.00,,,0.00,708,LWC V2.00 B727,2013-06-04 21:10:00,
2013-06-04 15:15:00,81.7,35.4,29.91,South,188,4.0,5.0,19,0.00,,,0.00,821,LWC V2.00 B727,2013-06-04 21:15:00,
2013-06-04 15:20:00,81.9,32.8,29.91,WSW,238,6.0,9.0,17,0.00,,,0.00,668,LWC V2.00 B727,2013-06-04 21:20:00,
2013-06-04 15:25:00,81.6,34.0,29.91,NE,35,5.0,7.0,18,0.00,,,0.00,745,LWC V2.00 B727,2013-06-04 21:25:00,
2013-06-04 15:30:00,81.1,32.1,29.91,WSW,244,8.0,10.0,17,0.00,,,0.00,218,LWC V2.00 B727,2013-06-04 21:30:00,
2013-06-04 15:35:00,79.8,35.1,29.91,SW,217,0.0,2.0,20,0.00,,,0.00,311,LWC V2.00 B727,2013-06-04 21:35:00,
2013-06-04 15:40:00,79.5,37.3,29.90,ESE,115,0.0,1.0,22,0.00,,,0.00,306,LWC V2.00 B727,2013-06-04 21:40:00,
2013-06-04 15:45:00,79.4,32.2,29.90,WSW,237,4.0,5.0,18,0.00,,,0.00,504,LWC V2.00 B727,2013-06-04 21:45:00,
2013-06-04 15:50:00,80.2,35.5,29.90,SSW,194,2.0,7.0,20,0.00,,,0.00,729,LWC V2.00 B727,2013-06-04 21:50:00,
2013-06-04 15:55:00,80.6,33.2,29.90,WSW,238,8.0,11.0,18,0.00,,,0.00,301,LWC V2.00 B727,2013-06-04 21:55:00,
2013-06-04 16:00:00,80.7,33.2,29.90,WSW,252,4.0,8.0,18,0.00,,,0.00,724,LWC V2.00 B727,2013-06-04 22:00:00,
2013-06-04 16:05:00,81.1,34.9,29.90,SW,229,3.0,6.0,19,0.00,,,0.00,323,LWC V2.00 B727,2013-06-04 22:05:00,
2013-06-04 16:10:00,81.6,34.0,29.89,NNE,28,3.0,6.0,18,0.00,,,0.00,622,LWC V2.00 B727,2013-06-04 22:10:00,
2013-06-04 16:15:00,81.8,35.5,29.89,SSW,201,0.0,4.0,19,0.00,,,0.00,531,LWC V2.00 B727,2013-06-04 22:15:00,
2013-06-04 16:20:00,80.7,31.8,29.89,South,187,8.0,13.0,17,0.00,,,0.00,469,LWC V2.00 B727,2013-06-04 22:20:00,
2013-06-04 16:25:00,79.1,31.9,29.89,SSW,210,7.0,8.0,18,0.00,,,0.00,334,LWC V2.00 B727,2013-06-04 22:25:00,
2013-06-04 16:30:00,78.5,32.8,29.89,SW,216,5.0,7.0,19,0.00,,,0.00,480,LWC V2.00 B727,2013-06-04 22:30:00,
2013-06-04 16:35:00,78.7,33.0,29.89,South,180,6.0,7.0,19,0.00,,,0.00,408,LWC V2.00 B727,2013-06-04 22:35:00,
2013-06-04 16:40:00,78.7,31.6,29.89,SSW,209,5.0,6.0,18,0.00,,,0.00,283,LWC V2.00 B727,2013-06-04 22:40:00,
2013-06-04 16:45:00,78.1,29.7,29.90,WSW,248,4.0,8.0,17,0.00,,,0.00,200,LWC V2.00 B727,2013-06-04 22:45:00,
2013-06-04 16:50:00,77.5,30.6,29.90,WSW,245,7.0,7.0,18,0.00,,,0.00,200,LWC V2.00 B727,2013-06-04 22:50:00,
2013-06-04 16:55:00,76.7,28.6,29.90,SW,220,6.0,13.0,17,0.00,,,0.00,218,LWC V2.00 B727,2013-06-04 22:55:00,
2013-06-04 17:00:00,76.3,29.7,29.90,South,188,4.0,7.0,18,0.00,,,0.00,218,LWC V2.00 B727,2013-06-04 23:00:00,
2013-06-04 17:05:00,76.3,29.7,29.90,WSW,245,5.0,9.0,18,0.00,,,0.00,385,LWC V2.00 B727,2013-06-04 23:05:00,
2013-06-04 17:10:00,76.9,30.2,29.90,South,180,3.0,8.0,18,0.00,,,0.00,445,LWC V2.00 B727,2013-06-04 23:10:00,
2013-06-04 17:15:00,77.6,29.3,29.89,SSW,194,4.0,9.0,17,0.00,,,0.00,473,LWC V2.00 B727,2013-06-04 23:15:00,
2013-06-04 17:20:00,78.0,28.2,29.89,WSW,238,4.0,8.0,16,0.00,,,0.00,587,LWC V2.00 B727,2013-06-04 23:20:00,
2013-06-04 17:25:00,78.6,30.1,29.89,SW,233,4.0,5.0,17,0.00,,,0.00,461,LWC V2.00 B727,2013-06-04 23:25:00,
2013-06-04 17:30:00,78.7,28.7,29.89,SSW,211,6.0,12.0,16,0.00,,,0.00,408,LWC V2.00 B727,2013-06-04 23:30:00,
2013-06-04 17:35:00,78.0,28.2,29.89,SSW,206,4.0,8.0,16,0.00,,,0.00,378,LWC V2.00 B727,2013-06-04 23:35:00,
2013-06-04 17:40:00,77.7,29.4,29.89,SW,220,8.0,8.0,17,0.00,,,0.00,339,LWC V2.00 B727,2013-06-04 23:40:00,
2013-06-04 17:45:00,77.5,29.2,29.89,SSW,198,3.0,6.0,17,0.00,,,0.00,325,LWC V2.00 B727,2013-06-04 23:45:00,
2013-06-04 17:50:00,77.1,27.4,29.89,SSW,192,5.0,9.0,16,0.00,,,0.00,183,LWC V2.00 B727,2013-06-04 23:50:00,
2013-06-04 17:55:00,76.5,28.4,29.89,SW,221,3.0,8.0,17,0.00,,,0.00,149,LWC V2.00 B727,2013-06-04 23:55:00,
2013-06-04 18:00:00,76.1,28.1,29.89,SW,217,3.0,7.0,17,0.00,,,0.00,139,LWC V2.00 B727,2013-06-05 00:00:00,
2013-06-04 18:05:00,75.9,28.0,29.89,SW,223,4.0,6.0,17,0.00,,,0.00,167,LWC V2.00 B727,2013-06-05 00:05:00,
2013-06-04 18:10:00,76.2,26.7,29.89,SSW,203,4.0,10.0,16,0.00,,,0.00,179,LWC V2.00 B727,2013-06-05 00:10:00,
2013-06-04 18:15:00,76.2,28.2,29.89,SSW,209,2.0,11.0,17,0.00,,,0.00,163,LWC V2.00 B727,2013-06-05 00:15:00,
2013-06-04 18:20:00,75.9,26.5,29.89,SW,234,7.0,11.0,16,0.00,,,0.00,134,LWC V2.00 B727,2013-06-05 00:20:00,
2013-06-04 18:25:00,75.4,26.1,29.89,SSW,205,3.0,5.0,16,0.00,,,0.00,128,LWC V2.00 B727,2013-06-05 00:25:00,
2013-06-04 18:30:00,75.5,27.6,29.89,South,181,3.0,9.0,17,0.00,,,0.00,125,LWC V2.00 B727,2013-06-05 00:30:00,
2013-06-04 18:35:00,75.8,27.9,29.89,SSW,200,2.0,7.0,17,0.00,,,0.00,137,LWC V2.00 B727,2013-06-05 00:35:00,
2013-06-04 18:40:00,76.1,28.1,29.89,SW,215,4.0,6.0,17,0.00,,,0.00,142,LWC V2.00 B727,2013-06-05 00:40:00,
2013-06-04 18:45:00,76.2,26.7,29.89,SSW,209,10.0,10.0,16,0.00,,,0.00,141,LWC V2.00 B727,2013-06-05 00:45:00,
2013-06-04 18:50:00,76.3,26.8,29.89,SSW,197,4.0,10.0,16,0.00,,,0.00,132,LWC V2.00 B727,2013-06-05 00:50:00,
2013-06-04 18:55:00,76.3,28.3,29.89,SSW,196,4.0,7.0,17,0.00,,,0.00,125,LWC V2.00 B727,2013-06-05 00:55:00,
2013-06-04 19:00:00,76.2,26.7,29.89,SSW,198,3.0,7.0,16,0.00,,,0.00,135,LWC V2.00 B727,2013-06-05 01:00:00,
2013-06-04 19:05:00,76.2,29.6,29.89,West,267,5.0,8.0,18,0.00,,,0.00,141,LWC V2.00 B727,2013-06-05 01:05:00,
2013-06-04 19:10:00,76.1,29.5,29.89,SW,232,2.0,9.0,18,0.00,,,0.00,139,LWC V2.00 B727,2013-06-05 01:10:00,
2013-06-04 19:15:00,75.9,28.0,29.89,SSW,213,4.0,9.0,17,0.00,,,0.00,120,LWC V2.00 B727,2013-06-05 01:15:00,
2013-06-04 19:20:00,75.5,27.6,29.89,SSW,195,8.0,11.0,17,0.00,,,0.00,98,LWC V2.00 B727,2013-06-05 01:20:00,
2013-06-04 19:25:00,75.0,28.6,29.89,SW,228,6.0,6.0,18,0.00,,,0.00,81,LWC V2.00 B727,2013-06-05 01:25:00,
2013-06-04 19:30:00,74.6,28.3,29.89,SSW,209,3.0,8.0,18,0.00,,,0.00,69,LWC V2.00 B727,2013-06-05 01:30:00,
2013-06-04 19:35:00,74.2,28.0,29.89,SSW,209,3.0,6.0,18,0.00,,,0.00,54,LWC V2.00 B727,2013-06-05 01:35:00,
2013-06-04 19:40:00,73.8,29.0,29.90,SW,217,1.0,4.0,19,0.00,,,0.00,39,LWC V2.00 B727,2013-06-05 01:40:00,
2013-06-04 19:45:00,73.5,27.4,29.90,South,183,5.0,8.0,18,0.00,,,0.00,26,LWC V2.00 B727,2013-06-05 01:45:00,
2013-06-04 19:50:00,73.3,28.5,29.90,SW,219,0.0,3.0,19,0.00,,,0.00,18,LWC V2.00 B727,2013-06-05 01:50:00,
2013-06-04 19:55:00,72.8,28.1,29.90,SSW,195,4.0,5.0,19,0.00,,,0.00,12,LWC V2.00 B727,2013-06-05 01:55:00,
2013-06-04 20:01:00,72.2,28.9,29.90,SSW,192,2.0,3.0,20,0.00,,,0.00,9,LWC V2.00 B727,2013-06-05 02:01:00,
2013-06-04 20:06:00,71.5,27.1,29.91,WSW,240,0.0,5.0,19,0.00,,,0.00,5,LWC V2.00 B727,2013-06-05 02:06:00,
2013-06-04 20:11:00,71.3,28.2,29.91,SSW,212,1.0,3.0,20,0.00,,,0.00,0,LWC V2.00 B727,2013-06-05 02:11:00,
2013-06-04 20:16:00,70.8,27.7,29.91,SSW,205,2.0,5.0,20,0.00,,,0.00,0,LWC V2.00 B727,2013-06-05 02:16:00,
2013-06-04 20:21:00,70.5,27.5,29.91,SSW,199,2.0,3.0,20,0.00,,,0.00,0,LWC V2.00 B727,2013-06-05 02:21:00,
2013-06-04 20:26:00,69.9,28.2,29.91,SSW,199,0.0,1.0,21,0.00,,,0.00,0,LWC V2.00 B727,2013-06-05 02:26:00,
2013-06-04 20:31:00,69.5,30.1,29.92,SSW,199,0.0,0.0,23,0.00,,,0.00,0,LWC V2.00 B727,2013-06-05 02:31:00,
2013-06-04 20:36:00,69.0,30.7,29.92,SSW,199,0.0,0.0,24,0.00,,,0.00,0,LWC V2.00 B727,2013-06-05 02:36:00,
2013-06-04 20:41:00,68.1,30.9,29.92,SSW,199,0.0,0.0,25,0.00,,,0.00,0,LWC V2.00 B727,2013-06-05 02:41:00,
2013-06-04 20:46:00,67.2,30.2,29.92,SSW,199,0.0,0.0,25,0.00,,,0.00,0,LWC V2.00 B727,2013-06-05 02:46:00,
2013-06-04 20:51:00,66.1,28.3,29.92,SSW,199,0.0,1.0,24,0.00,,,0.00,0,LWC V2.00 B727,2013-06-05 02:51:00,
2013-06-04 20:56:00,65.2,27.5,29.92,SSW,199,1.0,2.0,24,0.00,,,0.00,0,LWC V2.00 B727,2013-06-05 02:56:00,
2013-06-04 21:01:00,64.8,27.2,29.93,SSW,199,0.0,1.0,24,0.00,,,0.00,0,LWC V2.00 B727,2013-06-05 03:01:00,
2013-06-04 21:06:00,64.7,29.0,29.93,SSW,199,0.0,1.0,26,0.00,,,0.00,0,LWC V2.00 B727,2013-06-05 03:06:00,
2013-06-04 21:11:00,64.1,28.5,29.93,South,184,3.0,5.0,26,0.00,,,0.00,0,LWC V2.00 B727,2013-06-05 03:11:00,
2013-06-04 21:16:00,63.7,28.2,29.94,South,184,1.0,3.0,26,0.00,,,0.00,0,LWC V2.00 B727,2013-06-05 03:16:00,
2013-06-04 21:21:00,63.7,28.2,29.94,South,190,3.0,3.0,26,0.00,,,0.00,0,LWC V2.00 B727,2013-06-05 03:21:00,
2013-06-04 21:26:00,64.3,26.7,29.94,South,188,0.0,0.0,24,0.00,,,0.00,0,LWC V2.00 B727,2013-06-05 03:26:00,
2013-06-04 21:31:00,64.6,28.0,29.94,South,190,0.0,2.0,25,0.00,,,0.00,0,LWC V2.00 B727,2013-06-05 03:31:00,
2013-06-04 21:36:00,65.5,26.7,29.93,SSW,198,2.0,7.0,23,0.00,,,0.00,0,LWC V2.00 B727,2013-06-05 03:36:00,
2013-06-04 21:41:00,66.1,28.3,29.93,South,183,3.0,3.0,24,0.00,,,0.00,0,LWC V2.00 B727,2013-06-05 03:41:00,
2013-06-04 21:46:00,65.8,29.0,29.93,South,185,1.0,4.0,25,0.00,,,0.00,0,LWC V2.00 B727,2013-06-05 03:46:00,
2013-06-04 21:51:00,65.4,28.7,29.93,South,183,3.0,4.0,25,0.00,,,0.00,0,LWC V2.00 B727,2013-06-05 03:51:00,
2013-06-04 21:56:00,65.5,28.7,29.94,South,187,0.0,1.0,25,0.00,,,0.00,0,LWC V2.00 B727,2013-06-05 03:56:00,
2013-06-04 22:01:00,65.4,28.7,29.94,SSE,162,2.0,2.0,25,0.00,,,0.00,0,LWC V2.00 B727,2013-06-05 04:01:00,
2013-06-04 22:06:00,65.2,28.5,29.94,SSE,161,0.0,2.0,25,0.00,,,0.00,0,LWC V2.00 B727,2013-06-05 04:06:00,
2013-06-04 22:11:00,65.8,28.0,29.94,South,187,6.0,7.0,24,0.00,,,0.00,0,LWC V2.00 B727,2013-06-05 04:11:00,
2013-06-04 22:16:00,66.5,27.6,29.94,SSW,205,5.0,7.0,23,0.00,,,0.00,0,LWC V2.00 B727,2013-06-05 04:16:00,
2013-06-04 22:21:00,67.2,28.1,29.94,SW,228,0.0,2.0,23,0.00,,,0.00,0,LWC V2.00 B727,2013-06-05 04:21:00,
2013-06-04 22:26:00,67.7,27.5,29.94,WSW,240,4.0,11.0,22,0.00,,,0.00,0,LWC V2.00 B727,2013-06-05 04:26:00,
2013-06-04 22:31:00,68.4,28.1,29.94,WSW,240,2.0,3.0,22,0.00,,,0.00,0,LWC V2.00 B727,2013-06-05 04:31:00,
2013-06-04 22:36:00,68.3,28.0,29.94,SW,217,2.0,4.0,22,0.00,,,0.00,0,LWC V2.00 B727,2013-06-05 04:36:00,
2013-06-04 22:41:00,68.2,27.9,29.94,SSW,209,1.0,2.0,22,0.00,,,0.00,0,LWC V2.00 B727,2013-06-05 04:41:00,
2013-06-04 22:46:00,67.5,28.4,29.94,South,187,1.0,4.0,23,0.00,,,0.00,0,LWC V2.00 B727,2013-06-05 04:46:00,
2013-06-04 22:51:00,67.0,29.0,29.94,South,188,0.0,1.0,24,0.00,,,0.00,0,LWC V2.00 B727,2013-06-05 04:51:00,
2013-06-04 22:56:00,66.3,30.4,29.94,East,101,0.0,0.0,26,0.00,,,0.00,0,LWC V2.00 B727,2013-06-05 04:56:00,
2013-06-04 23:01:00,65.3,30.5,29.94,East,101,0.0,0.0,27,0.00,,,0.00,0,LWC V2.00 B727,2013-06-05 05:01:00,
2013-06-04 23:06:00,64.1,32.0,29.94,East,101,0.0,0.0,30,0.00,,,0.00,0,LWC V2.00 B727,2013-06-05 05:06:00,
2013-06-04 23:11:00,62.7,30.8,29.94,East,101,0.0,2.0,30,0.00,,,0.00,0,LWC V2.00 B727,2013-06-05 05:11:00,
2013-06-04 23:16:00,61.5,29.0,29.94,East,101,0.0,0.0,29,0.00,,,0.00,0,LWC V2.00 B727,2013-06-05 05:16:00,
2013-06-04 23:21:00,60.5,28.9,29.93,East,101,0.0,0.0,30,0.00,,,0.00,0,LWC V2.00 B727,2013-06-05 05:21:00,
2013-06-04 23:26:00,59.5,28.0,29.94,East,101,0.0,1.0,30,0.00,,,0.00,0,LWC V2.00 B727,2013-06-05 05:26:00,
2013-06-04 23:31:00,59.0,27.6,29.94,East,101,0.0,0.0,30,0.00,,,0.00,0,LWC V2.00 B727,2013-06-05 05:31:00,
2013-06-04 23:36:00,58.5,28.7,29.93,SSE,163,0.0,4.0,32,0.00,,,0.00,0,LWC V2.00 B727,2013-06-05 05:36:00,
2013-06-04 23:41:00,58.1,28.4,29.93,SSE,165,1.0,3.0,32,0.00,,,0.00,0,LWC V2.00 B727,2013-06-05 05:41:00,
2013-06-04 23:46:00,57.5,28.6,29.94,SSE,167,0.0,1.0,33,0.00,,,0.00,0,LWC V2.00 B727,2013-06-05 05:46:00,
2013-06-04 23:51:00,57.1,28.3,29.94,SSE,165,1.0,3.0,33,0.00,,,0.00,0,LWC V2.00 B727,2013-06-05 05:51:00,
2013-06-04 23:56:00,56.8,28.0,29.94,SSE,159,2.0,4.0,33,0.00,,,0.00,0,LWC V2.00 B727,2013-06-05 05:56:00,